Weather History for Fond du Lac, WI

Change the Weather History Date:

Saturday, October 12, 2013

  Actual Average Record
Temperature  
Mean Temperature 60 °F -  
Max Temperature 70 °F 59 °F 82 °F (2008)
Min Temperature 48 °F 41 °F 21 °F (2012)
Degree Days  
Heating Degree Days 6    
Growing Degree Days 10 (Base 50)    
Moisture  
Dew Point 50 °F    
Average Humidity 65    
Maximum Humidity 78    
Minimum Humidity 39    
Precipitation  
Precipitation 0.01 in - - ()
Sea Level Pressure  
Sea Level Pressure 29.95 in    
Wind  
Wind Speed 11 mph (SSW)    
Max Wind Speed 16 mph    
Max Gust Speed 23 mph    
Visibility 10 miles    
Events Thunderstorm    
Averages and records for this station are not official NWS values.
T = Trace of Precipitation, MM = Missing Value Source: NWS Daily Summary

Daily Weather History Graph

Daily Weather History Graph

Search for Another Location

Airport:

Trip Planner

Search our weather history database for the weather conditions in past years. The results will help you decide how hot, cold, wet, or windy it might be!

Date:

Astronomy

Oct. 12, 2013 Rise Set
Actual Time 7:04 AM CDT 6:15 PM CDT
Civil Twilight 6:36 AM CDT 6:43 PM CDT
Nautical Twilight 6:02 AM CDT 7:17 PM CDT
Astronomical Twilight 5:29 AM CDT 7:50 PM CDT
Moon 2:35 PM CDT (10/12) No Moon Set
Length of Visible Light 12h 07m
Length of Day
11h 10m
First Quarter, 59% of the Moon is Illuminated
Oct 12
First Quarter
Oct 18
Full
Oct 26
Last Quarter
Nov 3
New
Nov 9
First Quarter

Hourly Weather History & Observations

Time (CDT) Temp. Dew Point Humidity Pressure Visibility Wind Dir Wind Speed Gust Speed Precip Events Conditions
12:53 AM 59.0 °F 48.9 °F 69% 29.93 in 10.0 mi SSE 9.2 mph - N/A   Clear
1:53 AM 62.1 °F 48.9 °F 62% 29.92 in 10.0 mi SSE 16.1 mph - N/A   Clear
2:53 AM 62.1 °F 50.0 °F 65% 29.92 in 10.0 mi South 12.7 mph - N/A   Partly Cloudy
3:53 AM 62.1 °F 51.1 °F 67% 29.91 in 10.0 mi South 10.4 mph - N/A   Partly Cloudy
4:53 AM 62.1 °F 51.1 °F 67% 29.90 in 10.0 mi South 11.5 mph - N/A   Scattered Clouds
5:53 AM 62.1 °F 52.0 °F 70% 29.91 in 10.0 mi South 9.2 mph - N/A   Overcast
6:17 AM 62.6 °F 51.8 °F 68% 29.90 in 10.0 mi South 8.1 mph - N/A Thunderstorm Overcast
6:34 AM 62.6 °F 53.6 °F 72% 29.90 in 10.0 mi South 8.1 mph - N/A   Mostly Cloudy
6:53 AM 62.1 °F 53.1 °F 72% 29.91 in 10.0 mi South 9.2 mph - N/A   Mostly Cloudy
7:53 AM 61.0 °F 54.0 °F 78% 29.91 in 10.0 mi South 11.5 mph - 0.01 in   Scattered Clouds
8:53 AM 62.1 °F 55.0 °F 78% 29.93 in 10.0 mi South 10.4 mph - N/A   Mostly Cloudy
9:53 AM 64.9 °F 55.9 °F 73% 29.93 in 10.0 mi South 11.5 mph - N/A   Mostly Cloudy
10:53 AM 64.9 °F 55.9 °F 73% 29.93 in 10.0 mi South 13.8 mph 21.9 mph N/A   Mostly Cloudy
11:53 AM 66.9 °F 57.0 °F 70% 29.92 in 10.0 mi SSW 9.2 mph - N/A   Mostly Cloudy
12:25 PM 66.2 °F 57.2 °F 73% 29.91 in 10.0 mi SSW 13.8 mph 23.0 mph N/A   Mostly Cloudy
12:53 PM 66.9 °F 57.0 °F 70% 29.91 in 10.0 mi SSW 12.7 mph 19.6 mph N/A   Overcast
1:53 PM 66.9 °F 57.9 °F 73% 29.91 in 10.0 mi SW 10.4 mph - N/A   Overcast
2:00 PM 66.2 °F 57.2 °F 73% 29.90 in 10.0 mi SSW 10.4 mph - N/A   Overcast
2:07 PM 66.2 °F 57.2 °F 73% 29.91 in 10.0 mi SSW 12.7 mph - N/A   Overcast
2:18 PM 66.2 °F 57.2 °F 73% 29.91 in 10.0 mi SW 15.0 mph - N/A   Overcast
2:27 PM 66.2 °F 55.4 °F 68% 29.91 in 10.0 mi SW 10.4 mph 19.6 mph N/A   Mostly Cloudy
2:53 PM 68.0 °F 55.9 °F 65% 29.92 in 10.0 mi SSW 10.4 mph 19.6 mph N/A   Partly Cloudy
3:53 PM 69.1 °F 43.0 °F 39% 29.93 in 10.0 mi WSW 15.0 mph 23.0 mph N/A   Clear
4:53 PM 66.0 °F 41.0 °F 40% 29.96 in 10.0 mi West 15.0 mph 20.7 mph N/A   Clear
5:53 PM 62.1 °F 41.0 °F 46% 29.99 in 10.0 mi West 8.1 mph - N/A   Clear
6:53 PM 59.0 °F 39.9 °F 49% 30.03 in 10.0 mi West 5.8 mph - N/A   Clear
7:53 PM 55.9 °F 39.9 °F 55% 30.06 in 10.0 mi West 5.8 mph - N/A   Clear
8:53 PM 54.0 °F 39.0 °F 57% 30.09 in 10.0 mi WSW 4.6 mph - N/A   Clear
9:53 PM 53.1 °F 37.0 °F 55% 30.12 in 10.0 mi West 8.1 mph - N/A   Clear
10:53 PM 50.0 °F 37.0 °F 61% 30.13 in 10.0 mi SW 3.5 mph - N/A   Clear
11:53 PM 48.9 °F 37.0 °F 64% 30.15 in 10.0 mi SW 4.6 mph - N/A   Clear